GEFSMA_500_meanwind_096.txt.gz
Wind_Speed
33 32 32 31 31 30 29 28 28 27 27 27 26 25 24 22 21 19 17 16 14 13 12 10 9 8 7 7 7 7 7 7 7 7 8 7 7 8 8 8 9 9 9
33 34 34 33 33 31 30 30 29 28 28 28 28 28 26 25 23 22 20 18 17 15 14 13 11 10 10 9 8 8 7 7 7 7 7 7 8 8 8 8 9 9 9
33 33 34 34 34 33 32 32 31 30 29 28 28 29 29 26 25 24 22 21 19 18 16 15 14 13 12 11 10 10 9 8 8 8 8 7 8 8 8 9 8 9 9
31 32 32 33 33 34 34 34 33 32 32 30 29 30 30 29 26 26 24 23 22 20 19 17 16 15 14 13 12 12 11 10 10 9 9 8 8 8 9 8 9 9 10
29 30 31 32 34 34 34 34 34 33 33 32 31 30 30 30 29 27 26 25 24 23 22 20 19 17 16 15 14 14 13 12 11 11 10 10 10 9 9 9 9 9 10
27 28 29 30 32 33 34 34 34 34 34 33 33 32 31 32 30 29 28 27 26 25 24 23 21 20 19 17 17 16 15 14 13 13 12 12 11 11 11 11 11 10 11
24 25 26 28 30 31 32 34 34 34 33 34 34 33 33 32 31 30 30 29 29 28 26 25 24 23 22 20 19 18 18 17 16 15 14 14 13 13 13 13 12 12 12
20 22 24 25 27 29 30 33 34 34 34 34 34 34 34 33 33 32 31 31 30 30 28 27 27 25 24 23 22 21 20 19 19 18 17 16 16 15 15 15 15 14 14
17 19 21 23 25 26 28 30 32 33 34 34 35 35 34 34 33 34 34 32 31 30 30 29 29 28 27 26 25 24 23 22 21 20 20 19 18 17 17 17 16 17 16
15 16 18 20 22 24 25 28 30 31 33 34 35 36 36 34 34 34 34 34 33 32 31 31 31 30 29 28 27 26 26 24 24 23 22 21 20 20 19 19 19 19 19
13 14 15 17 19 21 23 25 28 30 32 33 34 35 36 35 35 34 33 34 34 34 34 33 32 32 32 31 30 28 27 27 26 25 25 24 23 22 22 21 21 21 20
12 12 13 15 17 19 21 23 25 28 30 32 33 34 35 35 34 35 34 35 35 35 35 36 34 33 32 31 31 30 29 28 28 28 27 26 26 25 24 24 23 23 22
13 13 12 13 15 17 19 20 23 26 28 30 32 32 33 34 34 34 34 34 35 36 35 36 36 35 34 33 33 33 32 30 29 29 29 28 27 27 26 26 26 26 25
14 13 12 11 12 14 16 18 20 22 25 27 29 30 31 32 33 33 33 32 32 34 35 34 35 36 35 35 34 34 35 33 32 31 31 30 29 29 29 28 28 27 27
15 14 12 10 9 10 12 14 16 19 21 24 25 27 30 31 32 32 32 32 31 31 33 34 33 33 34 35 36 36 36 35 34 33 32 32 31 30 30 30 30 29 29
17 15 12 10 9 8 9 11 13 14 16 19 22 24 26 28 30 31 32 32 32 31 31 31 32 33 34 34 35 35 35 35 34 34 33 33 32 31 31 31 31 30 30
19 17 14 12 9 7 7 8 10 12 14 17 19 21 23 25 27 29 30 31 31 31 31 31 32 32 33 33 34 35 35 34 34 34 34 33 34 34 33 33 32 32 31
21 19 16 13 11 8 6 6 7 9 11 14 16 18 20 22 24 26 28 29 30 30 30 30 30 31 32 34 33 33 34 34 33 34 33 33 33 33 33 33 33 33 32
22 20 18 16 13 10 7 5 5 6 8 10 12 15 17 19 22 24 26 27 28 29 30 30 30 30 30 31 31 31 31 31 32 32 32 32 32 32 32 32 33 33 33
23 22 20 18 15 11 9 6 5 4 5 6 8 11 14 16 19 21 23 25 26 27 28 29 30 30 30 31 31 31 31 31 31 31 31 31 31 32 32 31 32 32 32
24 22 21 20 17 14 11 8 7 5 4 5 7 9 12 13 16 18 20 22 24 25 27 28 28 30 31 31 30 30 29 29 30 30 30 30 30 30 30 30 30 30 30
24 23 21 20 18 16 14 11 8 7 6 5 6 8 10 11 13 15 17 19 20 22 24 26 27 28 29 29 29 29 29 30 29 30 31 30 29 30 30 29 29 29 29
24 23 22 20 19 17 16 14 11 9 8 7 7 7 8 9 11 13 15 17 18 19 20 22 24 25 26 28 27 27 28 29 29 30 30 30 29 29 29 30 30 30 30
24 23 22 21 19 18 17 16 14 12 10 8 8 7 6 7 8 10 12 13 14 15 17 19 21 22 23 24 25 26 27 27 28 29 29 29 29 29 30 30 30 29 29
23 23 22 20 19 19 18 17 15 13 12 10 9 7 6 6 6 8 9 11 13 14 15 17 18 20 21 22 23 24 25 25 26 27 27 28 28 28 29 29 28 27 27
22 22 21 20 19 19 18 17 16 15 13 11 10 8 7 6 6 6 8 9 10 11 13 14 15 17 18 20 21 22 23 23 23 24 24 24 25 26 25 26 25 25 25

GEFSMA_500_meanwind_102.txt.gz
Wind_Speed
31 32 33 33 32 32 32 30 30 30 28 28 27 26 24 23 22 21 20 18 16 15 14 12 11 10 9 9 9 9 9 10 10 11 11 12 12 11 12 12 12 11 11
28 29 31 33 33 33 33 32 31 31 30 28 28 28 26 25 24 23 22 21 19 17 16 15 13 12 11 11 10 10 10 10 11 11 11 11 11 12 11 12 13 12 12
26 27 29 32 33 33 33 32 32 32 32 31 29 28 28 27 26 25 24 23 21 20 19 17 16 15 14 13 12 12 11 11 11 11 11 11 11 11 11 12 13 13 12
24 26 27 29 31 33 32 32 33 33 33 32 30 30 29 28 28 27 26 25 24 22 21 20 18 17 16 15 14 13 13 12 12 12 12 12 11 11 11 11 12 13 12
21 23 25 27 29 31 32 32 33 34 33 34 32 31 30 29 29 29 28 27 26 24 23 22 21 19 18 17 16 15 14 14 14 13 13 13 12 12 11 11 12 12 12
18 19 21 24 27 29 30 31 32 33 34 34 34 33 32 31 31 30 30 28 27 26 25 24 23 22 21 20 19 17 17 16 15 15 14 14 14 13 13 12 12 13 13
16 17 18 20 23 26 28 30 31 32 33 35 34 34 33 33 32 32 31 31 29 29 28 26 26 25 23 23 22 20 19 18 17 17 16 15 15 15 14 14 14 14 14
14 14 15 16 18 21 25 27 29 30 32 33 34 34 33 33 32 32 31 32 32 30 30 29 27 27 26 25 24 23 22 21 20 19 18 17 17 17 16 16 15 15 15
12 12 12 14 15 18 21 24 27 29 30 32 34 35 34 33 33 33 33 33 34 33 32 31 29 28 28 27 26 26 25 23 23 22 21 20 20 19 18 18 17 17 17
12 11 10 11 13 14 17 20 23 26 27 29 32 34 35 35 34 33 34 33 34 34 33 32 31 30 30 29 28 28 27 26 26 25 24 23 22 21 21 20 20 19 19
12 10 9 9 10 12 14 17 20 23 25 27 29 32 33 35 35 34 33 33 34 34 33 33 34 33 31 31 30 30 29 28 28 27 26 25 24 23 23 22 22 21 21
12 10 9 7 8 10 12 15 17 20 23 25 27 29 31 32 34 35 34 33 33 34 34 33 34 33 33 33 32 31 31 29 29 29 28 28 27 26 25 25 24 23 23
13 11 9 7 6 8 10 13 15 17 20 23 26 28 29 30 30 32 33 33 33 33 33 32 33 34 34 34 34 32 31 31 30 30 30 30 29 28 28 27 26 26 25
15 12 10 8 6 6 7 10 12 14 17 19 22 24 26 28 28 29 31 32 32 33 33 33 34 34 35 36 35 34 35 33 33 33 32 31 31 30 30 29 28 28 28
17 14 12 9 7 6 6 7 10 12 14 17 20 22 24 25 27 29 29 30 31 33 33 33 34 35 35 36 36 36 35 35 34 34 34 33 32 32 31 30 30 30 30
19 16 14 11 8 7 6 5 6 9 12 15 17 19 21 23 25 27 28 29 29 31 31 32 32 34 34 35 35 36 36 37 37 36 35 35 34 33 33 32 32 31 30
20 18 16 13 11 8 6 6 5 6 8 12 15 18 20 22 23 25 26 27 29 29 29 30 31 32 32 33 34 34 35 36 37 36 35 35 35 34 34 34 33 33 32
20 19 17 15 13 11 8 6 5 4 5 7 11 14 17 19 21 23 25 27 28 29 29 30 31 31 32 32 33 34 34 36 35 36 37 37 36 35 34 34 34 33 33
20 19 18 17 15 12 9 8 6 4 4 5 7 9 12 15 18 20 22 25 26 28 29 29 30 32 32 31 32 32 33 34 35 35 36 36 36 36 36 35 35 34 33
20 19 18 18 16 14 11 9 8 6 4 3 4 6 9 12 15 18 19 22 24 25 27 28 29 30 31 31 32 32 32 33 34 35 36 35 35 36 35 35 34 34 34
21 19 18 17 17 15 13 11 9 8 6 4 3 4 6 9 12 14 16 18 21 23 25 26 26 28 29 29 30 31 31 33 33 33 35 35 35 35 34 34 34 33 33
21 20 19 18 16 16 14 12 10 9 7 5 4 4 4 6 9 11 13 16 18 20 22 23 24 25 26 28 29 30 30 31 31 31 33 33 34 34 34 34 33 33 33
21 20 19 18 16 15 14 13 11 10 9 8 6 4 4 4 6 8 11 13 15 17 19 20 21 22 23 25 27 28 30 30 30 30 32 33 33 33 33 33 33 33 32
20 20 19 18 17 15 14 13 12 11 10 9 8 6 5 4 5 7 9 11 12 15 17 18 19 21 22 23 24 26 27 29 30 31 31 32 32 32 32 32 31 32 31
20 20 19 18 17 15 14 14 13 12 11 10 9 7 6 5 5 6 8 9 11 13 14 16 17 19 21 22 23 24 25 26 28 28 29 29 30 31 31 30 31 31 31
20 19 19 18 17 16 14 13 13 12 11 11 10 8 7 7 7 6 7 8 10 11 13 14 16 18 19 21 22 23 24 26 26 27 28 29 29 30 30 30 31 31 31

GEFSMA_500_meanwind_108.txt.gz
Wind_Speed
25 26 26 28 30 31 30 30 29 29 28 27 26 26 26 24 23 22 21 19 17 16 14 13 12 11 10 10 10 10 10 11 11 12 13 13 12 12 11 11 11 11 10
23 24 25 26 27 29 30 30 30 30 29 29 27 27 27 26 25 24 23 21 20 19 17 16 14 13 12 11 11 11 11 11 11 12 12 13 12 12 12 12 11 11 11
20 22 23 25 26 27 28 29 30 30 30 30 29 28 28 28 27 25 24 23 22 21 20 19 17 16 14 13 13 13 12 12 12 12 12 13 12 12 12 12 12 12 12
19 20 21 23 25 26 27 28 29 29 30 30 30 30 29 29 29 27 25 25 24 23 22 21 20 18 17 16 15 14 14 13 12 13 13 13 13 13 13 12 12 12 13
17 18 19 21 22 24 25 26 27 28 29 30 30 30 30 29 29 29 28 26 25 25 24 24 23 21 19 18 17 16 15 15 14 13 14 14 13 13 13 13 13 13 13
16 16 17 18 20 21 23 24 25 27 28 29 29 30 31 30 30 29 29 28 27 27 26 25 25 24 22 21 19 19 18 17 16 15 15 15 14 14 13 13 14 13 14
14 14 14 15 16 18 20 22 23 25 27 27 28 29 30 31 31 30 30 30 30 29 28 27 26 26 25 23 22 21 20 19 18 17 17 16 16 16 15 14 14 14 14
14 13 13 13 14 16 18 20 21 23 25 27 27 28 28 30 31 31 32 32 31 31 31 30 29 28 26 26 24 23 22 21 20 19 19 18 18 17 17 17 16 16 15
13 12 11 11 12 13 15 18 20 21 23 25 27 27 28 29 30 32 33 34 33 32 32 32 32 30 28 27 26 26 25 24 23 22 21 20 20 19 19 19 18 18 18
13 11 10 10 10 11 13 15 18 20 22 23 26 26 27 29 30 31 32 33 34 33 32 32 32 31 30 29 28 27 27 26 25 24 23 23 22 22 21 21 20 19 19
13 12 10 10 9 9 10 13 15 17 20 22 24 25 25 28 29 29 31 33 33 33 33 32 33 32 32 31 31 29 29 28 28 27 26 25 24 24 24 23 22 22 21
14 12 10 10 9 8 9 9 11 15 17 20 21 23 24 25 26 28 30 31 32 32 32 32 33 33 33 33 33 31 31 30 29 29 28 27 27 26 25 25 25 24 23
15 13 11 10 8 7 6 7 8 11 14 17 19 20 22 24 24 26 28 30 30 31 32 32 33 34 34 34 34 33 32 32 31 31 30 30 30 29 28 28 27 26 26
17 14 12 11 9 7 6 6 7 9 12 14 16 18 20 22 23 24 25 28 30 30 31 32 32 34 35 36 36 35 34 33 32 32 32 32 32 31 31 30 30 29 28
18 16 13 11 10 8 7 5 5 7 10 12 13 15 18 20 22 23 23 25 28 29 29 31 32 32 33 35 36 35 35 35 34 33 33 33 33 33 32 32 32 31 30
19 18 15 13 11 10 8 6 5 6 8 10 11 13 15 17 19 21 22 23 26 28 29 30 31 32 33 34 35 36 36 36 36 35 34 33 33 34 33 33 33 32 31
19 18 17 15 13 11 9 7 6 5 6 8 10 11 13 15 17 19 21 22 24 25 27 28 30 30 30 33 34 35 35 35 36 36 36 35 34 35 34 34 34 34 33
20 19 18 16 14 12 10 8 6 5 5 5 7 9 11 13 15 18 20 22 23 24 25 27 28 29 29 31 32 33 34 34 35 36 37 37 36 35 36 36 35 35 34
21 20 19 17 15 13 11 9 7 6 5 5 6 7 9 11 13 15 18 21 23 24 24 26 26 27 27 29 31 32 33 33 34 35 36 37 36 35 36 36 36 36 35
21 20 19 17 16 14 12 10 8 6 5 5 5 5 7 8 10 12 15 17 20 22 23 24 25 25 26 27 28 30 30 32 34 35 35 36 37 36 35 35 36 36 36
20 20 19 18 16 15 13 11 10 8 7 7 6 6 5 6 8 10 11 13 16 19 21 22 23 24 24 25 26 28 29 29 30 32 33 34 35 35 35 35 36 36 36
20 19 18 17 16 15 14 12 11 10 9 9 8 7 6 6 6 8 10 12 13 16 18 19 21 22 23 25 26 27 28 28 28 29 31 32 33 33 34 35 36 36 36
20 19 18 17 16 15 14 13 12 11 10 10 9 8 7 6 6 7 8 10 11 13 16 18 20 20 22 24 24 25 27 27 27 28 29 31 32 33 33 34 35 36 37
19 19 18 18 17 15 14 13 12 12 11 10 10 9 8 7 7 7 8 9 10 12 15 17 19 20 20 21 23 24 25 26 27 28 28 30 31 32 33 33 34 36 37
18 18 18 17 16 16 15 14 13 12 11 11 10 10 9 9 8 8 8 9 10 12 13 14 17 19 19 20 21 22 23 24 24 26 27 28 30 32 33 33 33 34 36
18 18 17 17 16 15 15 14 14 14 13 12 11 10 10 10 10 10 10 10 11 11 12 13 15 17 18 19 20 21 22 23 24 25 26 27 29 31 32 32 33 33 34

GEFSMA_500_meanwind_114.txt.gz
Wind_Speed
20 20 21 23 23 25 26 28 28 27 27 27 27 27 26 26 25 24 24 22 21 20 19 17 15 15 14 14 14 14 13 13 13 13 13 13 13 13 14 14 13 12 12
19 20 20 21 22 23 24 25 26 26 26 27 27 27 27 27 26 26 25 24 23 22 21 20 18 17 16 16 15 15 15 15 14 14 14 15 14 14 14 14 14 13 13
18 19 20 20 21 22 23 24 25 26 26 27 26 26 27 28 28 28 27 26 25 23 22 22 20 19 17 17 17 16 16 16 15 15 15 15 15 15 14 14 14 14 13
17 17 18 20 20 21 22 24 24 26 26 26 27 26 27 28 29 29 29 28 27 25 24 24 23 21 20 19 18 18 18 17 17 16 16 16 16 16 15 15 14 14 14
16 16 17 18 19 19 21 22 24 25 26 26 26 26 27 29 29 30 30 30 28 27 26 25 24 23 22 21 20 19 19 19 18 18 17 17 17 17 16 16 15 15 14
15 15 15 16 16 17 18 20 22 24 24 25 26 27 28 30 29 29 30 31 30 29 28 27 25 24 24 24 23 22 21 20 19 19 19 18 18 18 18 17 16 16 15
13 13 13 13 13 14 16 17 19 21 23 24 25 26 27 29 29 29 30 31 31 31 30 29 27 26 25 25 25 24 23 22 21 21 20 19 19 19 19 18 18 17 16
13 12 11 11 11 12 13 15 17 19 21 23 24 26 27 28 30 29 30 31 32 32 31 30 29 28 27 27 26 26 25 24 23 22 21 21 20 20 19 19 19 18 18
12 10 10 10 9 10 10 12 15 17 19 21 23 25 27 28 28 29 31 31 32 33 33 32 31 30 30 29 28 27 26 26 25 24 24 23 22 21 21 20 20 19 19
12 10 9 9 8 8 8 10 11 14 16 18 21 23 25 26 28 28 30 31 32 33 33 33 32 31 31 30 30 29 29 28 28 27 26 25 24 23 23 22 22 21 21
12 11 10 8 8 7 7 7 9 11 13 15 18 21 22 25 26 27 27 29 31 32 33 33 33 32 32 32 31 30 30 30 29 29 28 26 26 25 24 24 24 23 23
13 11 10 9 8 7 5 5 7 9 11 13 15 18 20 22 24 26 26 28 30 31 32 33 34 33 33 33 32 32 31 31 30 30 30 29 28 27 27 26 25 25 25
14 12 10 9 8 6 5 4 5 7 10 12 13 15 17 19 21 23 24 27 29 30 31 32 34 33 34 34 33 33 33 32 31 31 31 31 30 29 28 28 27 27 27
15 13 12 10 9 7 5 4 3 5 7 10 12 14 15 16 17 20 22 23 25 27 29 31 32 33 33 35 34 33 34 34 33 33 33 33 32 31 30 30 29 29 29
16 15 13 11 9 8 6 4 3 3 5 7 9 12 14 15 16 17 18 20 21 23 26 28 30 30 31 33 33 34 33 33 33 33 33 33 34 33 32 32 32 32 31
17 15 14 12 10 8 6 4 2 3 4 6 7 10 11 13 15 15 17 18 19 21 23 25 28 29 29 30 31 33 33 33 33 33 33 33 34 34 34 34 33 32 32
17 16 15 14 12 10 7 5 3 2 2 4 6 7 9 10 13 14 15 17 18 19 21 24 25 27 29 30 30 31 32 33 34 34 34 33 33 34 34 34 35 35 34
17 16 15 14 13 11 8 6 4 3 2 2 4 6 7 9 10 12 14 16 17 19 20 21 23 24 27 28 29 30 31 32 32 33 34 34 34 34 35 35 36 36 36
16 16 15 14 13 12 10 7 5 4 3 2 3 4 6 7 9 10 12 14 16 18 20 21 22 24 25 26 27 29 30 31 32 32 33 34 34 34 34 35 35 36 36
16 15 14 14 13 12 11 9 7 5 3 3 3 4 5 6 8 9 12 13 15 17 19 20 22 23 24 25 26 27 28 30 30 32 33 34 35 35 34 34 34 35 35
16 15 14 14 13 12 11 9 8 7 5 4 3 4 4 5 6 8 9 11 13 14 16 18 19 21 23 24 25 25 26 28 29 30 32 34 34 35 35 34 34 35 35
16 15 14 13 13 12 11 10 9 7 6 5 4 4 4 4 5 6 7 9 10 12 14 15 17 18 19 20 22 23 25 26 26 28 30 32 33 34 35 35 35 35 35
16 15 14 13 13 12 11 11 10 9 7 6 6 6 5 5 6 7 8 9 10 11 13 15 17 17 19 20 21 22 22 24 25 26 28 28 29 31 32 34 35 35 35
15 14 14 13 12 12 11 11 10 10 9 8 8 7 7 7 7 8 9 10 10 11 13 14 16 18 19 20 21 22 23 24 25 26 27 27 28 28 30 31 33 34 34
15 14 14 13 13 12 12 11 11 11 10 9 9 9 9 9 9 9 9 10 11 12 13 14 15 17 19 20 21 21 23 24 25 26 26 27 28 29 30 32 33 33 34
15 15 14 14 13 13 13 12 12 11 11 11 10 10 10 10 10 10 10 11 11 12 13 14 15 17 18 19 20 22 22 23 24 26 26 26 27 29 30 32 33 34 34

GEFSMA_500_meanwind_120.txt.gz
Wind_Speed
18 18 19 19 19 20 21 22 22 23 24 25 25 25 26 26 26 25 24 23 23 23 22 19 18 16 15 14 14 13 13 13 12 12 11 11 10 11 11 11 11 11 12
19 18 18 18 18 18 19 21 22 23 24 25 25 25 26 27 27 26 25 25 25 24 24 22 20 18 16 15 15 15 14 14 13 13 12 12 12 11 11 11 11 11 11
19 18 18 18 18 17 17 19 20 21 23 24 25 26 26 26 27 28 27 25 26 26 25 23 21 20 19 17 16 16 16 16 15 14 14 13 13 12 12 12 12 12 12
19 18 17 17 17 17 17 17 18 20 21 22 23 25 26 26 26 28 27 26 26 26 26 25 23 22 20 19 18 18 17 17 16 16 15 14 14 13 13 13 12 13 13
19 17 16 16 16 16 16 16 17 18 19 21 22 23 25 26 26 27 28 26 27 27 27 26 24 23 22 21 20 19 19 18 18 17 16 16 15 15 15 14 13 13 13
18 16 15 14 14 14 14 15 15 16 18 19 20 21 23 24 24 25 27 26 26 27 27 27 25 24 23 22 22 21 20 20 19 19 18 18 17 16 16 15 15 14 14
17 15 13 13 13 13 13 14 14 15 16 17 19 20 22 23 24 24 26 28 27 28 28 27 27 25 24 24 23 22 22 21 20 20 19 19 19 18 18 17 17 16 16
17 15 13 12 11 11 11 11 11 13 14 16 18 19 21 23 23 24 24 27 27 28 28 27 28 27 25 25 24 24 23 23 22 22 21 20 20 19 19 19 18 18 17
16 15 13 11 10 10 10 10 9 10 12 14 16 18 20 21 22 23 24 25 28 28 29 28 28 28 27 26 26 25 25 24 24 23 23 22 21 21 21 20 19 19 19
17 15 14 12 10 9 9 8 8 9 10 12 14 16 17 19 20 21 22 24 26 28 29 29 29 29 28 28 27 26 26 26 25 25 24 24 23 22 22 21 21 20 20
17 15 14 12 11 10 8 7 7 7 9 10 12 14 16 16 18 19 21 23 25 26 27 28 29 30 29 29 29 28 27 27 27 27 26 26 25 25 24 23 22 22 22
17 16 14 12 11 9 8 7 6 6 7 9 11 13 14 15 17 19 19 21 23 25 26 27 28 29 31 30 29 28 28 28 28 28 28 27 27 26 26 25 24 24 23
17 17 15 13 11 9 8 6 5 4 5 7 9 11 13 14 16 18 19 20 20 23 24 25 27 29 30 31 30 29 29 30 29 29 29 29 28 28 27 26 26 25 25
18 17 15 13 11 9 8 6 5 4 4 5 7 9 10 12 14 15 18 19 20 21 22 23 25 28 29 29 30 30 29 30 30 30 30 30 30 29 29 28 27 27 27
19 18 16 14 11 9 8 6 5 4 3 3 4 6 7 9 10 13 15 17 17 18 20 23 25 26 28 29 30 30 30 30 30 30 30 30 30 30 30 29 29 28 28
19 19 17 15 12 10 9 7 5 4 3 2 3 4 6 7 8 10 12 14 15 17 19 20 22 25 27 27 29 30 30 30 29 30 30 30 30 30 30 31 30 30 30
19 18 17 16 13 11 9 8 6 4 3 3 3 4 5 6 6 8 11 12 13 14 16 18 20 22 24 26 27 27 28 29 30 30 30 30 30 30 30 30 30 30 30
19 18 17 16 15 13 10 9 7 5 3 3 3 4 5 5 6 7 9 11 12 12 13 14 17 19 22 24 25 25 26 27 28 29 30 30 29 29 30 29 30 31 31
19 18 17 16 15 14 12 10 8 6 4 3 3 4 4 5 6 7 8 10 11 12 14 14 16 17 19 22 23 24 24 25 26 27 28 29 29 29 30 30 30 31 31
18 17 17 16 15 14 12 11 9 8 6 5 4 4 5 6 6 7 9 10 11 12 13 13 15 17 17 19 21 22 24 25 25 26 27 28 28 29 30 31 31 31 32
18 17 17 16 15 14 13 12 11 9 7 6 5 5 5 6 7 8 9 9 10 11 12 13 14 16 17 18 20 21 23 24 25 26 27 28 29 30 31 31 32 33 33
17 17 16 16 15 14 13 12 12 11 9 8 7 6 6 6 7 8 9 10 10 11 12 13 14 16 17 17 18 19 21 22 24 25 26 27 28 29 30 31 33 33 34
16 17 16 16 15 14 13 12 12 11 10 9 8 7 7 7 7 7 8 9 10 11 12 12 13 14 16 17 17 18 20 20 21 22 23 24 26 28 29 31 32 32 33
16 16 16 16 15 15 14 13 12 12 11 10 9 9 9 9 8 9 10 10 10 11 12 12 12 13 14 16 17 18 19 20 21 22 22 23 25 26 27 28 30 31 32
16 16 16 16 15 15 14 14 13 13 12 12 11 10 10 10 10 10 10 11 11 12 12 13 14 14 14 15 16 17 19 20 21 22 23 24 25 26 26 27 28 29 31
16 16 16 16 16 15 15 15 14 14 14 13 13 12 12 12 12 11 11 12 12 13 14 14 15 15 15 15 16 17 18 20 21 22 23 24 24 25 26 27 28 29 30